Regional Weather Roundup
Issued by NWS

Home | Current Version | Previous Version | Text Only | Print | Product List | Glossary Off
Versions: 1 2 3 4 5 6 7 8 9 10 11 12 13 14 15 16 17 18 19 20 21 22 23 24 25 26 27 28 29 30 31 32 33 34 35 36 37 38 39 40 41 42 43 44 45 46 47 48 49 50

000
ASUS43 KMPX 102210
RWRMN
WEATHER ROUNDUP FOR MINNESOTA
NATIONAL WEATHER SERVICE TWIN CITIES/CHANHASSEN MN
400 PM CST WED FEB 10 2016


NOTE: "FAIR" INDICATES FEW OR NO CLOUDS BELOW 12,000 FEET WITH NO
SIGNIFICANT WEATHER AND/OR OBSTRUCTIONS TO VISIBILITY. N/A MEANS
CURRENT SKY AND/OR WEATHER CONDITIONS ARE NOT AVAILABLE.

MNZ060>063-068>070-102300-
   Twin Cities Metro

CITY           SKY/WX    TMP DP  RH WIND       PRES   REMARKS
TWIN CITIES    PTSUNNY   13  -4  46 NE8       30.12R WCI   2
ST PAUL        SUNNY     11  -5  48 N9        30.15R WCI  -2
CRYSTAL        MOSUNNY   12  -6  44 NE9       30.12R WCI   0
BLAINE         MOSUNNY   12  -2  52 N6        30.12R WCI   3
LAKEVILLE      CLOUDY    10   0  61 CALM      30.10S
EDEN PRAIRIE   CLOUDY    14  -3  47 VRB7      30.11R WCI   4
SOUTH ST PAUL  SUNNY     12  -5  46 N7        30.13R WCI   1
LAKE ELMO      FAIR      10  -2  56 NW5       30.14R WCI   2
$$
MNZ001>005-007-008-013>017-022>024-027-028-102300-
   Northwest Minnesota

CITY           SKY/WX    TMP DP  RH WIND       PRES   REMARKS
BEMIDJI        CLOUDY     6  -5  59 NE6       30.14R WCI  -4
HALLOCK        CLOUDY     9  -4  56 E5        30.23S WCI   0
ROSEAU         CLOUDY     1  -9  60 E5        30.22R WCI  -8
WARROAD        SUNNY      0  -9  65 CALM      30.22S
THIEF RVR FALL CLOUDY     7  -4  61 NE7       30.20S WCI  -5
CROOKSTON      CLOUDY     9   0  66 NE6       30.22S WCI  -1
FOSSTON        CLOUDY     7  -4  61 N6        30.16S WCI  -3
DETROIT LAKES  CLOUDY    14   1  57 N5        30.13R WCI   6
MOORHEAD       CLOUDY    12   3  67 N8        30.18R WCI   1
PARK RAPIDS    CLOUDY    11  -8  42 N5        30.11R WCI   3
MAHNOMEN       CLOUDY     9   0  66 N10       30.13F WCI  -6
$$
MNZ006-009>011-018-025>026-102300-
   North Central Minnesota

CITY           SKY/WX    TMP DP  RH WIND       PRES   REMARKS
BAUDETTE       SUNNY     -2 -13  59 NW8       30.19R WCI -17
FLAG ISLAND    SUNNY      0 -11  60 N3        30.21S
INTL FALLS     SUNNY      2 -11  54 CALM      30.18R
WASKISH        SUNNY      3  -9  55 N5        30.17R WCI  -6
LONGVILLE      CLOUDY     7  -8  51 NW3       30.13R
GRAND RAPIDS   CLOUDY     7  -9  47 NW7       30.11R WCI  -5
CRANE LAKE     SUNNY      1  -9  60 N5        30.18R WCI  -8
ORR            SUNNY      3 -11  51 CALM      30.10S
COOK           SUNNY      5  -9  51 NW3       30.12R
WALKER         CLOUDY     6  -6  58 NE3       30.13R
$$
MNZ012-019>021-037-102300-
   Northeast Minnesota

CITY           SKY/WX    TMP DP  RH WIND       PRES   REMARKS
DULUTH         SUNNY     10 -10  40 N8        30.07R WCI  -2
ELY            SUNNY      3  -6  66 NW3       30.10R
HIBBING        SUNNY      5  -8  55 NW8       30.11R WCI  -8
EVELETH        SUNNY      7  -8  51 NW8       30.11R WCI  -6
DULUTH HARBOR  SUNNY     12  -6  44 CALM      30.16R
TWO HARBORS    SUNNY     16  -4  41 NW3       30.09R
SILVER BAY     SUNNY     12  -6  44 NW3       30.09R
GRAND MARAIS     N/A      9  -7  48 NW5       30.15R WCI   1
G MARAIS ARPRT SUNNY      0 -11  60 NW9G16    30.01R WCI -16
$$
MNZ029>031-032-039>041-046>048-054>057-064-102300-
   West Central Minnesota

CITY           SKY/WX    TMP DP  RH WIND       PRES   REMARKS
FERGUS FALLS   CLOUDY    12   0  57 NE7       30.16R WCI   2
WHEATON        FLURRIES  12   7  79 E6        30.16R WCI   3
MORRIS         CLOUDY    12   1  62 E3        30.12R
ALEXANDRIA     CLOUDY    12  -2  53 E6        30.10R WCI   3
ELBOW LAKE     PTSUNNY   13  -1  53 NE7       30.11S HAZE    WCI   3
WADENA         CLOUDY    10  -2  56 N6        30.11R WCI   1
GLENWOOD       CLOUDY    12   1  62 NE7       30.10R WCI   2
APPLETON       LGT SNOW  14   5  67 E5        30.12S WCI   6
BENSON         CLOUDY    16   0  48 CALM      30.12R
ORTONVILLE     FLURRIES  10   3  72 E7        30.11S WCI   0
MADISON        FLURRIES  12   7  79 NE8       30.13R WCI   1
WILLMAR        FAIR      16   3  57 NE5       30.12R WCI   9
$$
MNZ033>034-036-042>043-049>051-058-059-102300-
   Central Minnesota

CITY           SKY/WX    TMP DP  RH WIND       PRES   REMARKS
ST CLOUD       PTSUNNY   11  -5  48 NE5       30.12R WCI   3
SAUK CENTRE    FAIR      10  -4  53 NE6       30.12R WCI   1
PAYNESVILLE    CLOUDY    13   1  58 NE3       30.11R
AITKIN         CLOUDY    10 -11  37 CALM      30.10R
PINE RIVER     CLOUDY     9  -6  52 N5        30.15R WCI   0
BRAINERD       CLOUDY    10  -7  46 NW6       30.12R WCI   0
STAPLES        CLOUDY     9  -8  47 N3        30.12R
LONG PRAIRIE   CLOUDY    10  -4  52 CALM      30.12R
LITTLE FALLS   CLOUDY    12  -6  44 CALM      30.13R
LITCHFIELD     PTSUNNY   12   0  57 NE8       30.11R WCI   1
BUFFALO        CLOUDY    12  -3  50 NE6       30.13R WCI   3
MAPLE LAKE     CLOUDY    13  -1  55 N5        30.13R WCI   5
$$
MNZ037-044-045-052-053-102300-
   East Central Minnesota

CITY           SKY/WX    TMP DP  RH WIND       PRES   REMARKS
PRINCETON      MOSUNNY   10  -6  48 NE7       30.12S WCI   0
MORA           SUNNY     12  -8  40 E3        30.14R
CAMBRIDGE      MOSUNNY   12  -2  52 CALM      30.12R
RUSH CITY      MOSUNNY    9  -5  52 NW3       30.14R
MOOSE LAKE     MOSUNNY   10  -8  44 W5        30.11R WCI   2
HINCKLEY       FAIR      12  -6  44 N5        30.13R WCI   4
CLOQUET        SUNNY     10 -11  37 N8        30.09R WCI  -1
MCGREGOR       CLOUDY    10  -6  48 NW6       30.12R WCI   1
$$
MNZ071>073-080-081-089-090-097-098-102300-
   Southwest Minnesota

CITY           SKY/WX    TMP DP  RH WIND       PRES   REMARKS
MONTEVIDEO     FLURRIES  16   7  67 CALM      30.14R
GRANITE FALLS  FLURRIES  15   7  69 NE3       30.14R
CANBY          FLURRIES  15  10  81 SE7       30.11R WCI   5
MARSHALL       FLURRIES  11   5  77 E10       30.10R WCI  -3
REDWOOD FALLS  CLOUDY    14   2  58 E7        30.11R WCI   4
OLIVIA         CLOUDY    16   3  57 E5        30.11R WCI   9
PIPESTONE      CLOUDY    16   3  57 E14       30.00R WCI   1
WINDOM         FLURRIES  10   5  79 E9        30.04S WCI  -2
WORTHINGTON    CLOUDY    10   5  79 E13       30.03R WCI  -5
JACKSON        CLOUDY    12   5  73 E9        30.03S WCI   0
TRACY          FLURRIES  12   8  82 E8        30.08R WCI   1
SLAYTON        CLOUDY    10   7  85 E10       30.03R WCI  -3
$$
MNZ065>067-074>077-082>085-091>093-102300-
   South Central Minnesota

CITY           SKY/WX    TMP DP  RH WIND       PRES   REMARKS
MANKATO        CLOUDY    12   1  62 NE8       30.10R WCI   1
NEW ULM        CLOUDY    12   0  57 E3        30.11R
ST JAMES       CLOUDY    12   5  73 CALM      30.10R
FAIRMONT       CLOUDY    10   3  72 NE8       30.06R WCI  -1
GLENCOE        CLOUDY    14   4  66 N5        30.11R WCI   6
FARIBAULT        N/A     12   0  57 NE5       30.10R WCI   4
OWATONNA       SUNNY     12  -2  52 NE9       30.08R WCI   0
WASECA         PTSUNNY   12   1  62 NE8       30.10R WCI   1
ALBERT LEA     PTSUNNY   12   1  62 NE5       30.06R WCI   4
$$
MNZ078>079-086>088-094>096-102300-
   Southeast Minnesota

CITY           SKY/WX    TMP DP  RH WIND       PRES   REMARKS
ROCHESTER      CLOUDY     9  -1  64 N8        30.05R WCI  -3
RED WING       CLOUDY     9  -6  52 N6        30.14R WCI  -1
STANTON        CLOUDY    11  -1  59 N9        30.10R WCI  -1
DODGE CENTER   CLOUDY    10  -2  56 N8        30.06R WCI  -1
WINONA         MOSUNNY   14   0  52 N5        30.13R WCI   6
AUSTIN         MOSUNNY   10   0  61 N5        30.07R WCI   2
PRESTON        CLOUDY     8  -3  60 N7        30.06R WCI  -4
$$
ABBREVIATIONS USED IN REMARKS
   TC - TEMPERATURES IN CELSIUS
  WCI - WIND CHILL INDEX
   HX - HEAT INDEX
  VSB - VISIBILITY
$$



USA.gov is the U.S. government's official web portal to all federal, state and local government web resources and services.